This is the latest recevied weather packets stored in our database for station/object KB3KBR-WX. If no packets are shown the sender has not sent any weather packets the latest 10 day(s).
| Time | Temp. | Humidity | Pressure | Rain* | Wind** | Luminosity | Snow |
|---|---|---|---|---|---|---|---|
| 1788024691 | 24.44° C | 50% | 1021.9 hPa | 0 mm | - | - | - |
| 1788024361 | 24.44° C | 53% | 1022.1 hPa | 0 mm | - | - | - |
| 1788024061 | 24.44° C | 51% | 1022 hPa | 0 mm | - | - | - |
| 1788023731 | 23.89° C | 52% | 1021.7 hPa | 0 mm | - | - | - |
| 1788023430 | 23.89° C | 53% | 1021.6 hPa | 0 mm | - | - | - |
| 1788023101 | 23.89° C | 50% | 1021.7 hPa | 0 mm | - | - | - |
| 1788022770 | 23.89° C | 51% | 1022.1 hPa | 0 mm | - | - | - |
| 1788022471 | 23.89° C | 55% | 1022.3 hPa | 0 mm | - | - | - |
| 1788022141 | 23.89° C | 52% | 1022.3 hPa | 0 mm | - | - | - |
| 1788021811 | 23.33° C | 53% | 1022.1 hPa | 0 mm | - | - | - |
| 1788021516 | 23.33° C | 54% | 1022.1 hPa | 0 mm | - | - | - |
| 1788021180 | 23.33° C | 53% | 1022 hPa | 0 mm | - | - | - |
| 1788020881 | 23.33° C | 54% | 1022.1 hPa | 0 mm | - | - | - |
| 1788020552 | 22.78° C | 57% | 1022 hPa | 0 mm | - | - | - |
| 1788020250 | 22.78° C | 56% | 1022.2 hPa | 0 mm | - | - | - |
| 1788019951 | 22.22° C | 58% | 1022.3 hPa | 0 mm | - | - | - |
| 1788019691 | 22.22° C | 56% | 1022.3 hPa | 0 mm | - | - | - |
| 1788019621 | 22.22° C | 56% | 1022.3 hPa | 0 mm | - | - | - |
| 1788019320 | 22.22° C | 59% | 1022.4 hPa | 0 mm | - | - | - |
| 1788018991 | 22.22° C | 57% | 1022.5 hPa | 0 mm | - | - | - |
| 1788018661 | 21.67° C | 57% | 1022.5 hPa | 0 mm | - | - | - |
| 1788018361 | 21.67° C | 59% | 1022.5 hPa | 0 mm | - | - | - |
| 1788018061 | 21.67° C | 58% | 1022.6 hPa | 0 mm | - | - | - |
| 1788017731 | 21.11° C | 59% | 1022.6 hPa | 0 mm | - | - | - |
| 1788017431 | 21.11° C | 61% | 1022.7 hPa | 0 mm | - | - | - |
* Rain latest hour (hover to see other rain measurements)
** Current wind speed in m/s (hover to see current wind gust speed)